{"data":{"norad_id":57872,"intl_designator":"2023-144J","name":"STARLINK-30446","alt_names":[],"object_type":"PAYLOAD","status":"ACTIVE","operator":null,"country":"US","launch_date":"2023-09-16","launch_site_code":"AFETR","launch_vehicle":null,"mission":null,"orbit_class":"UNKNOWN","rcs_meters":null,"size_class":null,"mass_kg":null,"dimensions":null,"purposes":["comms"],"wikipedia_slug":null,"has_3d_model":false,"image_url":null,"decayed_at":null,"tle_current":{"epoch":"2026-09-20T06:46:59.054880Z","epoch_age_seconds":153970,"freshness":"FRESH","line1":"1 57872U 23144J   26263.28262795  .00000104  00000+0  13307-4 0  9995","line2":"2 57872  43.0015 252.1180 0001056 271.9599  88.1132 15.27576849167299","mean_motion":15.27576849,"eccentricity":0.0001056,"inclination_deg":43.0015,"raan_deg":252.118,"arg_perigee_deg":271.9599,"mean_anomaly_deg":88.1132,"bstar":1.3307e-5,"rev_number":16729,"period_min":94.266943161823,"perigee_km":482.33398903533,"apogee_km":483.78307353154,"semimajor_km":6861.1955312834,"source":"CELESTRAK","updated_at":"2026-09-21T09:00:33.717398Z"}}}